Simultaneous Nadir Overpasses (SNOs) Predictions

Prediction of SNOs between METOP-A and TERRA Satellite Orbit:

Table of predicted SNOs for the next 14.0 days since TLE Epoch: 9/26/2020
Index Date (METOP-A) Time (METOP-A) Lat,Lon (METOP-A) SZA (METOP-A ) Date (TERRA) Time (TERRA) Lat,Lon (TERRA) SZA (TERRA ) Distance(km) Time Diff (sec)
1 09/27/2020 12:57:23 -81.39,-145.72 93.52 09/27/2020 12:57:38 -81.39,-145.60 93.50 2.02 15
2 09/27/2020 13:48:03 81.38, 21.90 86.52 09/27/2020 13:47:05 81.37, 21.80 86.48 1.76 58
3 09/30/2020 08:31:46 -81.38, -79.16 92.40 09/30/2020 08:31:53 -81.39, -79.03 92.37 2.57 7
4 09/30/2020 09:22:26 81.37, 88.43 87.65 09/30/2020 09:21:20 81.38, 88.33 87.61 1.86 66
5 10/03/2020 03:15:28 81.39, 179.67 88.68 10/03/2020 03:16:41 81.38, 179.52 88.69 2.49 73
6 10/03/2020 04:06:09 -81.39, -13.01 91.31 10/03/2020 04:06:08 -81.38, -12.88 91.30 2.30 1
7 10/03/2020 04:56:43 81.31, 156.89 88.96 10/03/2020 04:55:30 81.46, 156.39 88.95 18.71 73
8 10/05/2020 22:49:51 81.38,-113.81 89.79 10/05/2020 22:50:56 81.38,-114.00 89.80 3.05 65
9 10/05/2020 23:40:32 -81.38, 53.52 90.20 10/05/2020 23:40:23 -81.38, 53.63 90.19 1.80 9
10 10/08/2020 18:24:15 81.39, -47.70 90.85 10/08/2020 18:25:11 81.38, -47.54 90.90 2.61 56
